Tracking 19149 objects as of 22-Apr-2018
HD Live streaming from Space Station
objects crossing your sky now

FENGYUN 1C DEB

Track FENGYUN 1C DEB now!
10-day predictions


NORAD ID: 32354
Int'l Code: 1999-025CYX
Perigee: 715.1 km
Apogee: 1,026.4 km
Inclination: 102.9 °
Period: 102.2 minutes
Semi major axis: 7241 km
RCS: 0.0091 m2 (small)
Launch date: May 10, 1999
Source: People's Republic of China (PRC)
Launch site: Taiyaun Space Center, China (TSC)

Note: This is SATELLITE DEBRIS
aabbcc
Your satellite tracking list
Your tracking list is empty




NASA's NSSDC Master Catalog

Two Line Element Set (TLE):
1 32354U 99025CYX 18109.94346103 +.00001421 +00000-0 +70243-3 0  9998
2 32354 102.9354 013.3818 0214940 101.5709 260.9658 14.08753910555100
Source of the keplerian elements: AFSPC